This demonstration page uses our WeatherBlox Daily Observations layout. Learn more.

Left ArrowRight Arrow

30.21309, -93.2044

Hourly Observations for August 21, 2022

Temp ( °F °C ) Dew Point ( °F °C ) Humidity (%) Winds ( mph kmh ) Pressure ( in mb ) Visibility ( mi km ) Precip ( " mm )
12:15 am 00:15 Clear 76 24.5 74 23.5 94 94 SE 6 9 30.03 1017 10 16 0.00 0.00
12:35 am 00:35 Clear 76 24.5 74 23.5 94 94 SSE 6 9 30.03 1017 10 16 0.00 0.00
12:55 am 00:55 Clear 77 25 75 23.9 94 94 SE 5 7 30.03 1017 10 16 0.00 0.00
1:15 am 01:15 Clear 77 24.9 75 23.8 94 94 SSE 6 9 30.03 1017 10 16 0.00 0.00
1:35 am 01:35 Clear 77 24.8 75 23.7 94 94 SSE 5 7 30.03 1017 10 16 0.00 0.00
1:55 am 01:55 Clear 77 24.8 75 23.8 94 94 SSE 3 6 30.02 1017 10 16 0.00 0.00
2:15 am 02:15 Clear 76 24.6 74 23.6 94 94 SE 5 7 30.02 1017 10 16 0.00 0.00
2:35 am 02:35 Clear 77 25 75 24 94 94 SE 3 6 30.02 1017 10 16 0.00 0.00
2:55 am 02:55 Clear 77 25 75 23.9 94 94 Calm 30.03 1017 10 16 0.00 0.00
3:15 am 03:15 Clear 76 24.6 74 23.6 94 94 SSE 5 7 30.03 1017 7 11 0.00 0.00
3:35 am 03:35 Clear 77 24.8 75 23.9 95 95 Calm 30.03 1017 10 16 0.00 0.00
3:55 am 03:55 Clear 77 24.8 75 23.8 94 94 ENE 3 6 30.03 1017 10 16 0.00 0.00
4:15 am 04:15 Clear 76 24.4 74 23.4 94 94 ESE 5 7 30.02 1017 7 11 0.00 0.00
4:35 am 04:35 Clear 76 24.3 74 23.4 95 95 ESE 3 6 30.02 1017 7 11 0.00 0.00
4:55 am 04:55 Clear 76 24.3 74 23.4 95 95 ESE 5 7 30.02 1017 10 16 0.00 0.00
5:15 am 05:15 Clear 76 24.3 74 23.4 95 95 E 3 6 30.02 1017 7 11 0.00 0.00
5:35 am 05:35 Clear 76 24.3 74 23.4 95 95 E 3 6 30.02 1017 7 11 0.00 0.00
6:00 am 06:00 Mostly Clear 75 24 73 23 94 94 Calm 30.03 1017 10 16 0.00 0.00
6:55 am 06:55 Mostly Sunny 75 24 73 23 94 94 Calm 30.04 1017 10 16 0.00 0.00
7:48 am 07:48 Mostly Sunny 77 25 75 24 94 94 Calm 30.06 1018 10 16 0.00 0.00
8:50 am 08:50 Mostly Sunny 81 27 77 25 89 89 Calm 30.08 1019 10 16 0.00 0.00
9:51 am 09:51 Partly Cloudy 84 29 79 26 84 84 Calm 30.08 1019 10 16 0.00 0.00
10:55 am 10:55 Mostly Cloudy 88 31 79 26 75 75 SSE 7 11 30.08 1019 10 16 0.00 0.00
11:50 am 11:50 Mostly Cloudy with Light Rain 79 26 72 22 79 79 S 8 13 30.08 1019 7 11 0.00 0.00
12:51 pm 12:51 Partly Cloudy 82 28 73 23 74 74 Calm 30.07 1018 10 16 0.00 0.00
1:49 pm 13:49 Partly Cloudy 84 29 73 23 70 70 SSE 6 9 30.05 1018 10 16 0.00 0.00
2:55 pm 14:55 Mostly Sunny 88 31 75 24 66 66 S 7 11 30.01 1016 10 16 0.00 0.00
3:54 pm 15:54 Partly Cloudy 88 31 75 24 66 66 SSW 14 22 30.01 1016 10 16 0.00 0.00
4:48 pm 16:48 Partly Cloudy 90 32 75 24 63 63 SSW 14 22 30.00 1016 10 16 0.00 0.00
5:54 pm 17:54 Mostly Sunny 88 31 75 24 66 66 SSW 9 15 29.98 1015 10 16 0.00 0.00
6:53 pm 18:53 Mostly Sunny 84 29 75 24 74 74 SSW 9 15 29.99 1016 10 16 0.00 0.00
7:55 pm 19:55 Mostly Clear 82 28 77 25 84 84 S 6 9 30.00 1016 10 16 0.00 0.00
8:52 pm 20:52 Mostly Clear 81 27 75 24 84 84 SSE 8 13 30.01 1016 10 16 0.00 0.00
9:45 pm 21:45 Mostly Clear 79 26 75 24 89 89 SE 6 9 30.01 1016 10 16 0.00 0.00
10:15 pm 22:15 Clear 80 26.4 75 23.9 86 86 SE 6 9 30.00 1016 10 16 0.00 0.00
10:35 pm 22:35 Clear 79 26 75 23.9 88 88 ESE 6 9 30.00 1016 10 16 0.00 0.00
10:55 pm 22:55 Clear 79 26.2 75 24.1 88 88 SE 7 11 30.00 1016 10 16 0.00 0.00
11:15 pm 23:15 Clear 80 26.5 76 24.4 88 88 SE 6 9 30.00 1016 10 16 0.00 0.00
11:35 pm 23:35 Clear 79 26.2 76 24.3 89 89 SE 5 7 30.01 1016 10 16 0.00 0.00
11:55 pm 23:55 Clear 79 25.9 76 24.3 91 91 SE 3 6 30.01 1016 10 16 0.00 0.00

Powered by AerisWeather